Location: Risskov
(56.1972°N, 10.2480°E)
Time: 13:57:57
(UTC+00:00)

BlueWalker 3 - Pass Details

Date: 05 December 2022
Orbit: 499 x 517 km, 53.2° (Epoch: 05 February)

Event Time Altitude Azimuth Distance (km) Brightness Sun altitude
Rises 16:46:43 0° 270° (W) 2,631 7.1 -15.4°
Reaches altitude 10° 16:48:57 10° 265° (W) 1,740 6.0 -15.7°
Maximum altitude 16:52:47 52° 189° (S) 643 2.6 -16.2°
Enters shadow 16:54:56 23° 122° (ESE) 1,110 3.3 -16.5°
